| time (UTC) | temp F | wind direction | speed MPH | gust MPH | rain 1hr in | rain 24hr in | rain mn in | humidity % | barometer mb |
| 20260904174551 | 82 | 232 | 2.0 | 11.0 | 0.00 | 0.03 | 0.03 | 51 | 1007.2 |
| 20260904173055 | 81 | 234 | 3.0 | 7.0 | 0.00 | 0.03 | 0.03 | 53 | 1007.4 |
| 20260904171546 | 79 | 234 | 2.0 | 7.0 | 0.00 | 0.03 | 0.03 | 55 | 1007.5 |
| 20260904170044 | 78 | 232 | 1.0 | 6.0 | 0.00 | 0.03 | 0.03 | 57 | 1007.5 |
| 20260904164537 | 77 | 232 | 0.0 | 8.0 | 0.00 | 0.03 | 0.03 | 59 | 1007.6 |
| 20260904163035 | 76 | 230 | 3.0 | 7.0 | 0.00 | 0.03 | 0.03 | 61 | 1007.3 |
| 20260904161532 | 76 | 231 | 0.0 | 7.0 | 0.00 | 0.03 | 0.03 | 62 | 1007.3 |
| 20260904160030 | 75 | 229 | 2.0 | 7.0 | 0.00 | 0.03 | 0.03 | 64 | 1007.2 |
| 20260904154528 | 75 | 229 | 2.0 | 5.0 | 0.00 | 0.03 | 0.03 | 66 | 1007.2 |
| 20260904153025 | 74 | 228 | 1.0 | 5.0 | 0.00 | 0.03 | 0.03 | 67 | 1007.0 |
| 20260904151525 | 73 | 227 | 1.0 | 5.0 | 0.00 | 0.03 | 0.03 | 69 | 1006.9 |
| 20260904150026 | 73 | 236 | 0.0 | 3.0 | 0.00 | 0.03 | 0.03 | 70 | 1006.9 |
| 20260904144514 | 73 | 236 | 0.0 | 4.0 | 0.00 | 0.03 | 0.03 | 70 | 1006.8 |
| 20260904143010 | 72 | 236 | 0.0 | 5.0 | 0.00 | 0.03 | 0.03 | 70 | 1007.0 |
| 20260904141509 | 72 | 236 | 0.0 | 2.0 | 0.00 | 0.03 | 0.03 | 69 | 1006.9 |
| 20260904140007 | 72 | 236 | 1.0 | 7.0 | 0.00 | 0.03 | 0.03 | 68 | 1006.9 |
| 20260904134504 | 73 | 236 | 1.0 | 5.0 | 0.00 | 0.03 | 0.03 | 67 | 1006.7 |
| 20260904133003 | 73 | 236 | 2.0 | 7.0 | 0.00 | 0.03 | 0.03 | 67 | 1006.5 |
| 20260904131602 | 72 | 236 | 0.0 | 2.0 | 0.00 | 0.03 | 0.03 | 67 | 1006.1 |
| 20260904130058 | 72 | 236 | 0.0 | 1.0 | 0.00 | 0.03 | 0.03 | 67 | 1006.0 |
| 20260904124603 | 72 | 236 | 0.0 | 0.0 | 0.00 | 0.03 | 0.03 | 67 | 1006.1 |
| 20260904123054 | 72 | 236 | 0.0 | 0.0 | 0.00 | 0.03 | 0.03 | 67 | 1005.9 |
| 20260904121554 | 73 | 236 | 0.0 | 0.0 | 0.00 | 0.03 | 0.03 | 65 | 1005.9 |
| 20260904120057 | 73 | 236 | 0.0 | 1.0 | 0.00 | 0.03 | 0.03 | 64 | 1005.8 |
| 20260904114554 | 73 | 236 | 0.0 | 4.0 | 0.00 | 0.03 | 0.03 | 63 | 1005.8 |
| 20260904113051 | 73 | 236 | 0.0 | 2.0 | 0.00 | 0.03 | 0.03 | 62 | 1005.8 |
| 20260904111550 | 73 | 236 | 3.0 | 8.0 | 0.00 | 0.03 | 0.03 | 61 | 1005.8 |
| 20260904110050 | 73 | 236 | 3.0 | 10.0 | 0.00 | 0.03 | 0.03 | 60 | 1005.7 |
| 20260904104549 | 73 | 236 | 0.0 | 5.0 | 0.00 | 0.03 | 0.03 | 59 | 1005.6 |
| 20260904103048 | 73 | 238 | 0.0 | 9.0 | 0.00 | 0.03 | 0.03 | 59 | 1005.4 |
| 20260904101550 | 73 | 241 | 0.0 | 7.0 | 0.00 | 0.03 | 0.03 | 59 | 1005.5 |
| 20260904100048 | 73 | 240 | 3.0 | 9.0 | 0.00 | 0.03 | 0.03 | 59 | 1005.3 |
| 20260904094546 | 73 | 238 | 3.0 | 10.0 | 0.00 | 0.03 | 0.03 | 58 | 1005.2 |
| 20260904093048 | 73 | 239 | 1.0 | 9.0 | 0.00 | 0.03 | 0.03 | 59 | 1005.0 |
| 20260904091552 | 73 | 237 | 3.0 | 10.0 | 0.00 | 0.03 | 0.03 | 59 | 1005.1 |
| 20260904090043 | 73 | 240 | 3.0 | 9.0 | 0.00 | 0.03 | 0.03 | 60 | 1005.3 |
| 20260904084541 | 74 | 236 | 2.0 | 9.0 | 0.00 | 0.03 | 0.03 | 60 | 1005.4 |
| 20260904083040 | 74 | 238 | 0.0 | 1.0 | 0.00 | 0.03 | 0.03 | 59 | 1005.4 |
| 20260904081539 | 75 | 238 | 0.0 | 8.0 | 0.00 | 0.03 | 0.03 | 59 | 1005.4 |
| 20260904080038 | 75 | 237 | 0.0 | 2.0 | 0.00 | 0.03 | 0.03 | 60 | 1005.5 |
| 20260904074552 | 75 | 238 | 0.0 | 3.0 | 0.00 | 0.03 | 0.03 | 61 | 1005.5 |
| 20260904073035 | 75 | 237 | 0.0 | 3.0 | 0.00 | 0.03 | 0.03 | 61 | 1005.5 |
| 20260904071548 | 76 | 237 | 0.0 | 7.0 | 0.01 | 0.03 | 0.03 | 62 | 1005.7 |
| 20260904070034 | 75 | 237 | 0.0 | 3.0 | 0.03 | 0.03 | 0.03 | 62 | 1005.9 |
| 20260904064543 | 75 | 237 | 2.0 | 9.0 | 0.03 | 0.03 | 0.03 | 62 | 1006.0 |
| 20260904063032 | 75 | 167 | 6.0 | 9.0 | 0.03 | 0.03 | 0.03 | 62 | 1005.6 |
| 20260904061510 | 76 | 185 | 3.0 | 10.0 | 0.02 | 0.02 | 0.02 | 59 | 1005.1 |
| 20260904060008 | 78 | 190 | 4.0 | 10.0 | 0.00 | 0.00 | 0.00 | 54 | 1004.8 |
| 20260904054503 | 78 | 197 | 3.0 | 8.0 | 0.00 | 0.00 | 0.00 | 52 | 1004.6 |
| 20260904053002 | 79 | 175 | 1.0 | 7.0 | 0.00 | 0.00 | 0.00 | 51 | 1004.3 |
| 20260904051501 | 79 | 177 | 2.0 | 8.0 | 0.00 | 0.00 | 0.00 | 50 | 1004.1 |
| 20260904050107 | 80 | 169 | 4.0 | 9.0 | 0.00 | 0.00 | 0.00 | 49 | 1004.3 |
| 20260904044614 | 80 | 140 | 3.0 | 11.0 | 0.00 | 0.00 | 0.00 | 48 | 1004.3 |
| 20260904043101 | 83 | 153 | 5.0 | 12.0 | 0.00 | 0.00 | 0.00 | 42 | 1004.0 |
| 20260904041558 | 88 | 233 | 2.0 | 6.0 | 0.00 | 0.00 | 0.00 | 31 | 1003.2 |
| 20260904040057 | 88 | 234 | 0.0 | 2.0 | 0.00 | 0.00 | 0.00 | 31 | 1002.9 |
| 20260904034557 | 89 | 233 | 0.0 | 2.0 | 0.00 | 0.00 | 0.00 | 31 | 1002.8 |
| 20260904033100 | 89 | 233 | 0.0 | 3.0 | 0.00 | 0.00 | 0.00 | 30 | 1002.6 |
| 20260904031605 | 89 | 234 | 0.0 | 5.0 | 0.00 | 0.00 | 0.00 | 30 | 1002.5 |
| 20260904030055 | 90 | 234 | 0.0 | 5.0 | 0.00 | 0.00 | 0.00 | 29 | 1002.3 |
| 20260904024555 | 90 | 235 | 0.0 | 9.0 | 0.00 | 0.00 | 0.00 | 28 | 1002.0 |
| 20260904023054 | 90 | 236 | 2.0 | 8.0 | 0.00 | 0.00 | 0.00 | 28 | 1001.7 |
| 20260904021554 | 90 | 234 | 2.0 | 8.0 | 0.00 | 0.00 | 0.00 | 27 | 1001.4 |
| 20260904020054 | 90 | 234 | 1.0 | 7.0 | 0.00 | 0.00 | 0.00 | 28 | 1001.2 |
| 20260904014553 | 91 | 234 | 1.0 | 8.0 | 0.00 | 0.00 | 0.00 | 27 | 1001.2 |
| 20260904013052 | 91 | 237 | 2.0 | 7.0 | 0.00 | 0.00 | 0.00 | 27 | 1001.2 |
| 20260904011553 | 92 | 238 | 1.0 | 8.0 | 0.00 | 0.00 | 0.00 | 26 | 1001.1 |
| 20260904010053 | 92 | 237 | 1.0 | 4.0 | 0.00 | 0.00 | 0.00 | 25 | 1001.1 |
| 20260904004551 | 93 | 237 | 0.0 | 5.0 | 0.00 | 0.00 | 0.00 | 25 | 1000.9 |
| 20260904003050 | 93 | 234 | 1.0 | 7.0 | 0.00 | 0.00 | 0.00 | 25 | 1000.9 |
| 20260904001549 | 93 | 234 | 0.0 | 5.0 | 0.00 | 0.00 | 0.00 | 25 | 1000.8 |
| 20260904000049 | 94 | 236 | 0.0 | 8.0 | 0.00 | 0.00 | 0.00 | 25 | 1000.9 |
| 20260903234549 | 94 | 236 | 2.0 | 5.0 | 0.00 | 0.00 | 0.00 | 25 | 1000.8 |
| 20260903233050 | 96 | 234 | 1.0 | 5.0 | 0.00 | 0.00 | 0.00 | 24 | 1000.8 |
| 20260903231550 | 97 | 238 | 0.0 | 4.0 | 0.00 | 0.00 | 0.00 | 24 | 1000.8 |
| 20260903230049 | 96 | 235 | 0.0 | 6.0 | 0.00 | 0.00 | 0.00 | 24 | 1000.9 |
| 20260903224546 | 96 | 221 | 1.0 | 6.0 | 0.00 | 0.00 | 0.00 | 24 | 1001.0 |
| 20260903223043 | 96 | 227 | 0.0 | 7.0 | 0.00 | 0.00 | 0.00 | 24 | 1001.1 |
| 20260903221548 | 95 | 194 | 4.0 | 13.0 | 0.00 | 0.00 | 0.00 | 24 | 1001.2 |
| 20260903220041 | 96 | 225 | 4.0 | 10.0 | 0.00 | 0.00 | 0.00 | 25 | 1001.3 |
| 20260903214539 | 98 | 238 | 0.0 | 5.0 | 0.00 | 0.00 | 0.00 | 24 | 1001.6 |
| 20260903213036 | 96 | 238 | 2.0 | 9.0 | 0.00 | 0.00 | 0.00 | 26 | 1001.7 |
| 20260903211533 | 97 | 248 | 0.0 | 8.0 | 0.00 | 0.00 | 0.00 | 25 | 1001.9 |
| 20260903210030 | 97 | 249 | 1.0 | 9.0 | 0.00 | 0.00 | 0.00 | 25 | 1002.2 |
| 20260903204527 | 95 | 236 | 1.0 | 9.0 | 0.00 | 0.00 | 0.00 | 26 | 1002.5 |
| 20260903203034 | 96 | 240 | 1.0 | 10.0 | 0.00 | 0.00 | 0.00 | 25 | 1002.7 |
| 20260903201524 | 94 | 205 | 0.0 | 7.0 | 0.00 | 0.00 | 0.00 | 28 | 1002.8 |
| 20260903200038 | 95 | 233 | 3.0 | 10.0 | 0.00 | 0.00 | 0.00 | 26 | 1003.1 |
| 20260903194535 | 96 | 260 | 0.0 | 4.0 | 0.00 | 0.00 | 0.00 | 26 | 1003.2 |
| 20260903193025 | 95 | 245 | 0.0 | 5.0 | 0.00 | 0.00 | 0.00 | 27 | 1003.4 |
| 20260903191515 | 93 | 234 | 2.0 | 7.0 | 0.00 | 0.00 | 0.00 | 28 | 1003.7 |
| 20260903190016 | 93 | 237 | 1.0 | 9.0 | 0.00 | 0.00 | 0.00 | 28 | 1003.9 |
| 20260903184513 | 96 | 236 | 0.0 | 4.0 | 0.00 | 0.00 | 0.00 | 26 | 1004.2 |
| 20260903183008 | 94 | 234 | 1.0 | 4.0 | 0.00 | 0.00 | 0.00 | 27 | 1004.5 |
| 20260903181504 | 93 | 239 | 0.0 | 8.0 | 0.00 | 0.00 | 0.00 | 29 | 1004.8 |
| 20260903180116 | 92 | 240 | 1.0 | 10.0 | 0.00 | 0.00 | 0.00 | 31 | 1005.1 |